Weather in Ocean City

United States     38°19′53″N   75°06′25″W
temp.,
°C
wind,
m/s
gust,
m/s
humid.,
%
clouds,
%
prec.,
mm/h
press.,
hPa
HPBL,
m
17 may, mon
mon1723:00+16ssw1163100 0.0 102554
02:00+15nw2267100 0.0 102575
05:00+16n116868 0.0 102557
08:00+16ene2260100 0.0 102680
11:00+16ese3370100 0.0 1027130
14:00+16se3375100 0.0 1026202
17:00+17sse2373100 0.0 1026148
20:00+17ese33735 0.0 1026118
18 may, tue
tue1823:00+16se4578100 0.0 1027186
02:00+16sse3481100 0.0 1027143
05:00+16s2380100 0.0 102699
08:00+16wnw118020 0.0 102861
11:00+16e227695 0.0 1029116
14:00+17ese337195 0.0 1028204
17:00+17s5575100 0.0 1026199
20:00+17s5573100 0.0 1026104
19 may, wed
wed1923:00+17sw5672100 0.0 1027135
02:00+17wsw4573100 0.0 102695
05:00+16w4573100 0.0 1026104
08:00+16nw338088 0.0 102893
11:00+18s0078100 0.0 102811
14:00+19s4474100 0.0 1028104
17:00+19ssw55800 0.0 102753
20:00+18ssw468180 0.0 102653
20 may, thu
thu2023:00+17sw46850 0.0 102754
02:00+17wsw45821 0.0 102748
05:00+17w47815 0.0 102897
08:00+17wnw3481100 0.0 102949
11:00+20wnw1175100 0.0 102911
14:00+20sse3374100 0.0 102951
17:00+21s3375100 0.0 102837
20:00+20ssw4478100 0.0 102826
21 may, fri
fri2123:00+18s3379100 0.0 102814
02:00+17sse3384100 0.0 102836
05:00+17ssw338497 0.0 102835
08:00+17sse2283100 0.0 102925
11:00+17sse2281100 0.0 103046
14:00+17sse3384100 0.0 102858
17:00+17sse4587100 0.0 102775
20:00+18se3386100 0.0 102641